Lid_Strength_Index
-1 0 1 2 8 8 9 8 6 7 7 4 4 6 7 6 9 12 1 0 -0 -0 -1 -1 -2 -1 -1 -1 -1 -1 -1 -1 -1 -1 -1 -1 -1 -1 -1 -1 -1 -1 -1 -1 -1 -1 -1 -1 -1
-0 0 1 4 9 10 9 7 8 6 5 4 4 5 6 7 3 3 2 -0 -0 -0 -1 -1 -1 -2 -1 -1 -1 -1 -1 -1 -1 -1 -1 -1 -1 -1 -1 -1 -1 -1 -1 -1 -1 -1 -1 -1 -1
0 0 4 8 9 10 9 7 6 5 4 5 5 4 5 5 3 2 0 -0 -0 -0 -1 -1 -2 -2 -1 -1 -1 -1 -1 -1 -1 -1 -1 -1 -1 -1 -1 -1 -1 -1 -1 -1 -1 -1 -2 -2 -2
1 2 4 8 9 7 7 6 5 5 4 4 5 6 3 2 2 1 -0 -0 -0 -0 -1 -1 -1 -2 -1 -1 -1 -1 -1 -1 -1 -1 -1 -1 -1 -1 -1 -1 -1 -1 -2 -1 -1 -2 -2 -2 -2
2 3 11 11 8 6 5 5 4 5 5 5 4 6 5 2 1 0 -0 -0 0 -0 -1 -1 -1 -2 -1 -1 -1 -1 -1 -1 -1 -1 -1 -1 -1 -1 -1 -1 -1 -2 -3 -2 -2 -2 -3 -3 -3
5 5 10 11 8 6 5 4 4 5 4 4 5 5 5 1 1 1 0 -0 -0 0 -1 -1 -1 -2 -2 -2 -2 -2 -2 -1 -1 -1 -1 -1 -1 -1 -1 -1 -1 -3 -3 -3 -3 -3 -3 -3 -3
5 6 8 8 8 8 6 4 5 5 5 6 4 6 4 3 1 0 0 -0 -0 -0 -0 -1 -1 -1 -2 -2 -2 -2 -2 -2 -1 -1 -1 -2 -2 -3 -3 -2 -3 -3 -4 -4 -3 -3 -4 -4 -3
4 5 7 7 8 8 5 4 4 4 5 3 3 6 6 3 1 0 0 0 0 -0 -0 -0 -1 -1 -1 -1 -2 -2 -2 -2 -2 -2 -2 -2 -3 -3 -4 -3 -3 -3 -4 -4 -3 -3 -3 -3 -4
3 7 9 8 7 7 4 6 5 3 4 3 3 3 2 1 1 1 1 1 1 0 -0 -0 -0 -1 -1 -1 -1 -1 -2 -2 -2 -2 -3 -2 -1 -1 -2 -3 -4 -3 -4 -4 -3 -4 -4 -4 -4
5 6 7 5 5 6 5 5 5 6 5 5 4 2 2 2 2 2 2 2 2 1 0 -0 -0 -1 -1 -1 -1 -1 -1 -1 -1 -1 -1 -1 -2 -2 -2 -3 -3 -4 -4 -4 -3 -4 -4 -3 -1
4 7 5 5 4 4 5 5 4 6 7 5 5 4 3 2 2 2 2 2 2 1 0 -0 -1 -2 -1 -1 -1 -1 -0 -0 -1 0 -2 -3 -2 -2 -2 -1 -1 -2 -4 -0 -2 -1 -0 -1 -1
6 5 4 4 4 4 5 4 5 5 5 3 3 3 3 3 3 2 3 2 2 1 0 0 -0 -1 -1 -1 -1 -2 0 0 0 -1 -1 -2 -1 -1 -1 -1 -1 -1 -1 -1 -1 0 -1 -1 -1
5 5 4 4 4 4 4 4 5 5 3 3 2 2 3 3 2 2 1 1 1 1 1 0 -0 -1 -1 -1 -1 -1 -0 -0 -0 -1 -2 -1 -1 -0 -1 -1 -1 -1 -1 -1 0 0 -0 -0 -0
4 5 4 4 4 4 5 5 5 4 3 3 3 3 4 3 2 2 2 2 1 1 -0 0 -0 -0 -1 -1 -1 -0 -1 -2 -2 -1 -1 -2 -2 -1 -1 -1 -1 -1 -1 -0 0 1 -0 -0 -0
4 6 5 5 4 5 4 6 7 4 4 4 4 4 4 3 2 2 2 2 1 1 -0 0 -1 -1 -1 -1 -2 -1 -1 -1 -1 -1 -2 -2 -3 -1 -1 -1 -0 -1 -2 -1 -1 -1 -1 -0 -0
6 6 8 5 5 4 5 9 6 4 4 4 4 4 4 4 3 2 1 1 1 1 1 -1 -0 -0 -1 -2 -1 -1 -1 -1 -1 -1 -2 -2 -2 -3 -2 -0 -0 -1 -1 -1 -0 0 0 0 0
6 9 9 7 5 5 5 7 5 4 4 4 3 5 5 5 3 2 1 1 1 1 1 0 -1 -1 -0 -1 -1 -1 -1 -1 -1 -1 -1 -1 -1 -1 -1 -1 -1 -1 -1 -0 0 0 0 1 1
9 9 8 8 6 6 6 7 5 4 4 4 4 5 5 5 3 2 1 1 1 1 0 0 0 -1 -2 -1 -1 -0 -1 -0 -1 0 0 -1 -2 -2 -1 -1 -1 -1 -0 0 0 1 0 1 1
6 7 8 6 5 6 6 6 5 4 4 4 4 4 4 4 4 3 2 1 1 1 1 0 1 -0 -0 1 1 1 1 1 0 0 -1 -2 -2 -2 -2 -1 -1 -1 0 0 0 0 1 1 1
6 7 8 7 6 6 6 7 5 5 5 4 4 4 4 4 4 3 2 2 1 1 1 1 -0 0 0 0 0 0 0 -0 -0 -1 -2 -2 -2 -2 -1 -1 -0 -0 0 0 0 1 1 1 1
7 8 8 8 6 6 7 8 6 5 5 4 4 4 4 4 5 4 3 3 2 2 1 1 0 -1 -0 -1 -0 -0 -0 -0 1 0 -0 -1 -2 -2 -1 -1 -0 -0 -0 1 0 1 1 2 1
8 6 6 7 8 10 6 12 8 7 8 6 4 4 4 4 3 4 4 3 2 2 1 1 1 0 -0 -1 -0 0 1 2 1 0 -0 -0 -1 -1 -2 -1 -1 -0 -0 0 0 0 1 1 3
7 5 6 7 8 8 9 10 10 7 10 9 5 4 3 3 3 3 3 3 2 2 3 1 1 0 -0 -0 -0 0 1 1 0 0 0 -0 -0 -1 -1 -1 -1 -0 -0 -0 -0 0 1 1 2
5 6 6 7 8 13 10 9 11 9 7 6 4 4 3 3 3 2 3 2 3 2 2 1 1 1 0 0 0 0 0 0 1 1 1 1 0 0 -0 -1 -1 -1 -0 -0 0 0 0 1 1
6 8 12 12 12 13 8 10 10 6 6 5 5 4 3 3 3 3 3 3 3 2 1 1 1 1 1 0 0 -0 -1 -0 1 1 1 1 1 1 -0 -0 -0 -0 -0 -0 -0 0 0 1 1
7 8 11 15 15 13 9 12 11 5 4 4 4 3 3 3 3 3 3 3 3 2 1 0 0 0 -0 0 -1 0 -1 0 0 1 1 1 1 0 -1 -0 -0 -0 -0 -0 -0 0 1 1 1
7 9 7 11 10 13 10 10 7 5 5 5 4 4 4 3 3 3 3 3 3 3 2 -0 0 -0 -0 -1 0 -1 0 1 1 0 0 1 0 0 -0 -0 0 -0 -0 -0 1 1 1 1 1
6 6 11 10 15 15 11 13 11 8 7 5 5 5 4 3 3 3 3 3 2 2 0 0 -1 1 0 -1 1 1 0 -0 -0 0 0 0 0 -0 0 0 0 -0 -0 1 0 1 1 2 2
10 9 8 7 10 13 13 12 7 7 6 6 5 5 4 4 3 3 2 2 2 1 2 1 1 1 1 1 1 0 0 0 0 0 0 0 -0 -0 0 0 0 0 1 0 1 1 1 1 1
6 9 9 11 12 10 11 12 5 5 5 5 5 4 4 3 3 3 3 2 2 2 2 1 1 1 1 0 0 0 0 0 1 1 0 -0 0 -0 0 0 1 1 2 0 1 1 1 1 1